Location: Trondheim
(63.4170°N, 10.4170°E)
Time: 16:28:48
(UTC+02:00)

ISS - Visible Passes

Search period start: 22 July 2017 00:00
Search period end: 01 August 2017 00:00
Orbit: 400 x 408 km, 51.6° (Epoch: 22 July)

Date Brightness Start Highest point End Pass type
(mag) Time Alt. Az. Time Alt. Az. Time Alt. Az.
23 Jul -1.8 01:54:34 10° SSW 01:55:34 11° S 01:56:35 10° SSE visible
24 Jul -1.8 01:02:41 10° S 01:03:34 11° S 01:04:26 10° SSE visible
25 Jul -1.7 01:46:16 10° SSW 01:46:57 10° S 01:47:37 10° S visible
26 Jul -1.8 00:53:56 10° SSW 00:54:55 11° S 00:55:53 10° SSE visible
28 Jul -1.7 00:45:49 10° SSW 00:46:12 10° S 00:46:35 10° S visible
